Home > Weather > Charlottetown > Past weeks

Flag for Canada Past Weather in Charlottetown, Prince Edward Island, Canada — Yesterday and Last 2 Weeks

Now
68 °F

Passing clouds.


Feels Like: 68 °F
Forecast: 65 / 74 °F
Wind: 14 mph from Southwest

Location: Charlottetown

Current Time: Jun 29, 2016 at 12:44:22 AM

Latest Report: Jun 29, 2016 at 12:00 AM


Visibility: 15 mi

Pressure: 30.07 "Hg

Humidity: 88%

Dew Point: 64 °F

Location of CharlottetownLocation

Past Weather in Charlottetown — Graph

°F

Charlottetown Temperature Yesterday

Maximum temperature yesterday: 77 °F (at 2:00 PM)
Minimum temperature yesterday: 59 °F (at 5:00 AM)
Average temperature yesterday: 69 °F

High & Low Weather Summary for the Past Weeks

 TemperatureHumidityPressure
High81 °F (Jun 27, 5:00 PM)100% (Jun 14, 7:00 AM)30.25 "Hg (Jun 14, 7:00 AM)
Low36 °F (Jun 18, 3:00 AM)25% (Jun 18, 3:00 PM)29.38 "Hg (Jun 14, 3:00 AM)
Average61 °F68%29.91 "Hg
* Reported Jun 13 11:00 PM — Jun 28 11:00 PM, Charlottetown, Weather by CustomWeather, © 2016

Note: Actual official high and low records may vary slightly from our data, if they occured in-between our weather recording intervals... More about our weather records

Advertising

Charlottetown Weather History for the Previous 24 Hours

Scroll right to see more
 ConditionsComfort  
Time TempWeatherWind HumidityBarometerVisibility
11:00 PM
Tue, Jun 28
70 °FPartly cloudy.13 mph83%30.07 "Hg15 mi
10:00 PM72 °FPartly sunny.13 mph78%30.06 "Hg15 mi
9:00 PM72 °FBroken clouds.10 mph73%30.05 "Hg15 mi
8:00 PM73 °FBroken clouds.8 mph69%30.04 "Hg15 mi
7:00 PM73 °FBroken clouds.7 mph69%30.04 "Hg15 mi
6:00 PM75 °FPartly sunny.10 mph61%30.03 "Hg15 mi
5:00 PM75 °FBroken clouds.12 mph61%30.03 "Hg15 mi
4:00 PM77 °FBroken clouds.16 mph61%30.02 "Hg15 mi
3:00 PM77 °FBroken clouds.14 mph61%30.02 "Hg15 mi
2:00 PM77 °FPartly sunny.13 mph57%30.03 "Hg15 mi
1:10 PM75 °FPartly sunny.16 mph65%30.03 "Hg15 mi
12:00 PM73 °FBroken clouds.20 mph65%30.03 "Hg15 mi
11:00 AM70 °FBroken clouds.17 mph73%30.03 "Hg15 mi
10:00 AM66 °FBroken clouds.15 mph78%30.03 "Hg15 mi
9:00 AM66 °FBroken clouds.18 mph78%30.04 "Hg15 mi
8:00 AM64 °FBroken clouds.20 mph73%30.04 "Hg15 mi
7:00 AM63 °FScattered clouds.13 mph73%30.03 "Hg15 mi
6:00 AM61 °FPassing clouds.14 mph72%30.03 "Hg15 mi
5:00 AM59 °FPassing clouds.14 mph77%30.03 "Hg15 mi
4:00 AM61 °FClear.15 mph68%30.04 "Hg15 mi
3:00 AM61 °FClear.17 mph72%30.03 "Hg15 mi
2:00 AM63 °FClear.20 mph68%30.03 "Hg15 mi
1:00 AM64 °FClear.14 mph68%30.03 "Hg15 mi
12:00 AM64 °FPassing clouds.14 mph68%30.04 "Hg15 mi
Weather by CustomWeather, © 2016

See weather overviewHow to use our weather pages